STARLINK-3564, 52302

Orbit data source: Space-Track

STARLINK-3564, 52302 is a payload satellite owned by SpaceX/Seattle (US) in LEO that was launched on Thu, 21 Apr 2022 UTC via an FALCON 9 launch vehicle from the Air Force Eastern Test Range (AFETR). Payload-class satellites include a variety of spacecraft equipped with specific instruments for various scientific and technological missions. These include communications satellites like Starlink; space stations such as the ISS; scientific satellites like the Hubble; Earth observation satellites from companies like Planet Labs, Umbra, and HawkEye 360; GPS; miniature CubeSats for education and research; and military/defense satellites.

Loading next visibility...
Identifier
52302, 2022-041AT
Orbit
LEO
Country
Flag of USUS
Related business
Manufacturer
SpaceX/Seattle
Mission
Operational Commercial Communications
Bus & Motor
STARLINK, Unknown motor
Mass
297 kg wet, ~275 kg dry
Launch date (UTC)
2022-04-21 (4 years ago)
Launch vehicle
FALCON 9
Launch site
Air Force Eastern Test Range (AFETR)
Object type
Payload
Rocket body
Debris
Shape & HBR
Box + 1 Pan, 10.1 m
Radar Cross Section
11.087 m², Large (>1 m²)

Expand to show TLE details & history
Last TLE update: 1 day ago

TLE from 1 day ago
0 STARLINK-3564
1 52302U 22041AT  26235.78436777 -.00000390  00000-0 -81932-6 0  9991
2 52302  53.1608  48.8392 0001009  89.4189 270.6928 15.31703202240004
Epoch: 2026-08-23T18:49Z
TLE epoch observation values (Epoch: 2026-08-23T18:49:29.375Z)
Latitude
-0.00002°
Longitude
154.39134°
Altitude
471.623 km
Speed
7.631 km/s
True Right ascension
03h 15m 21s
True Declination
0° 00' 00"
Sunlit
Object was in daylight at epoch
Visualization orbit readout
Latitude
Unknown
Longitude
Unknown
Altitude
Unknown
Speed
Unknown
Apparent Right ascension
Unknown
Apparent Declination
Unknown
Sunlit
N/A
Visualization observer readout
Local Sidereal Time
19:31:47
Azimuth
Unknown
Elevation
Unknown
Doppler factor
Unknown
Orbital elements
Apogee altitude
471.678 km
Perigee altitude
470.296 km
Semi-major axis
6,849.124 km
Eccentricity
0.0001
Inclination
53.1608°
RAAN
48.8392°
Arg. of periapsis
89.4189°
True anomaly
270.68124°
Mean anomaly
270.6928°
Eccentric anomaly
270.68702°
Mean motion
3.82905 °/min
Orbital period
94.02 mins
BSTAR
-8.1932e-7
Loading maneuver chart data...
Computing Atmospheric mass density...
Loading historical data...
Loading historical data...
Loading historical data...
Loading historical data...
Loading historical data...
Loading historical data...
Loading historical data...

Documentation

Showing up to 5 results
|